Temp_Advection
nan nan nan nan nan nan nan nan nan nan nan nan nan nan nan nan nan nan nan nan nan nan nan nan nan nan nan nan nan nan nan nan nan nan nan nan nan nan
nan 0 0 0 0 0 0 0 0 0 0 0 -0 0 0 0 0 0 0 0 0 0 0 0 0 0 0 0 0 -0 -0 -0 1 1 1 -0 -0 nan
nan 1 0 1 1 0 0 0 0 0 0 0 0 0 -0 -0 0 1 0 -0 -0 0 0 0 1 0 0 -0 -0 -0 -0 -0 -0 0 1 1 -0 nan
nan 1 0 0 1 1 0 0 0 0 0 0 0 0 0 0 0 0 0 0 0 0 0 0 0 0 -0 -0 0 0 -0 -0 0 0 0 0 1 nan
nan 1 1 0 1 0 0 0 0 0 0 0 0 0 0 0 0 0 0 0 0 0 0 0 -0 -0 0 0 -0 0 -0 -0 0 0 0 0 0 nan
nan 1 1 0 0 0 0 0 0 0 0 0 0 0 0 0 0 0 0 0 0 0 0 0 -0 -0 0 0 0 -0 -0 0 -0 -0 0 0 0 nan
nan 1 0 0 0 0 0 0 0 0 0 0 0 0 0 0 0 0 0 0 0 0 -0 -0 -0 -0 -0 -0 -0 -0 -0 0 0 0 0 0 0 nan
nan 0 0 0 0 0 0 0 0 0 0 0 0 0 0 0 0 0 0 0 -0 -0 0 0 -0 -0 -0 -0 -0 0 0 0 -0 -0 0 0 0 nan
nan 0 0 0 0 0 0 0 0 0 0 0 0 0 0 0 0 0 0 0 0 -0 -0 -0 0 -0 -0 -0 -0 -0 0 0 0 0 0 0 -0 nan
nan 0 0 0 0 0 0 0 0 0 0 0 0 0 0 0 0 0 0 -0 -0 -0 -0 -0 0 0 -0 -0 -0 -0 0 0 0 0 -0 -0 0 nan
nan 0 0 0 0 0 0 0 0 0 0 0 0 0 0 -0 0 0 0 -0 -0 -0 -0 -0 -0 -0 -0 -0 0 0 -0 0 -0 -0 -0 -0 -0 nan
nan 0 0 0 0 0 0 0 0 0 0 0 0 0 0 -0 0 -0 -0 -0 -0 -0 -0 -0 -0 -0 -0 -0 0 0 0 0 0 -0 -1 -1 0 nan
nan 0 0 0 0 0 0 0 0 0 0 0 0 0 0 0 0 -0 -0 -0 -0 0 -0 -0 -0 -0 -0 -0 0 0 0 0 -0 -0 -0 -0 0 nan
nan 0 0 0 0 0 -0 -0 0 0 0 0 0 0 0 0 -0 -0 -0 -0 -0 0 0 -0 -0 0 -0 -1 -1 0 0 1 0 0 0 -0 -0 nan
nan 0 0 0 0 0 -0 -0 -0 0 0 0 0 0 0 -0 -0 -0 -0 -0 0 0 -0 -0 -0 0 0 -1 -2 -1 -1 -1 0 0 -0 -0 0 nan
nan 0 0 0 0 0 0 0 0 0 0 0 0 0 0 -0 -0 -0 -0 -0 0 0 0 -0 -0 -0 -0 0 -1 -1 0 -1 -1 0 -0 -0 0 nan
nan 0 0 0 0 0 0 0 0 0 0 0 0 0 -0 -0 -0 -0 -0 -0 -0 0 1 1 -0 -1 -1 -1 -1 -1 0 0 -0 0 -0 -1 -0 nan
nan 0 0 0 0 0 0 0 0 0 0 0 0 0 0 -0 -0 0 -0 -0 -0 -0 0 1 1 0 -1 -1 -0 -0 -0 -0 -0 -0 -0 -2 -2 nan
nan 0 0 0 0 0 0 0 0 0 0 0 0 0 0 -0 -0 0 -0 -0 -0 -0 0 0 1 0 -0 -2 -2 1 -0 -0 -1 -1 -0 -0 -2 nan
nan 0 0 0 -0 0 0 0 0 0 0 0 0 1 0 0 0 0 0 -0 -0 -1 -0 0 1 1 0 -0 -3 -2 2 -0 -1 -1 -0 -0 -1 nan
nan 0 0 0 0 0 0 0 0 0 0 0 0 1 1 0 0 0 0 1 1 -0 -1 -0 1 1 1 0 -2 -3 -0 1 0 -0 -0 -1 -1 nan
nan 0 0 0 0 0 0 0 0 0 0 0 0 1 1 1 0 1 0 0 0 0 -0 -0 0 0 1 0 -0 -2 -2 -0 1 0 0 0 0 nan
nan nan nan nan nan nan nan nan nan nan nan nan nan nan nan nan nan nan nan nan nan nan nan nan nan nan nan nan nan nan nan nan nan nan nan nan nan nan
Wind_Speed
23 21 20 18 18 19 20 20 21 15 16 18 14 18 19 17 15 14 14 15 16 17 20 19 20 21 20 20 21 20 21 20 21 19 15 12 11 12
25 22 21 18 22 21 18 19 19 18 18 14 16 14 15 14 15 15 15 17 16 15 18 21 20 20 18 17 17 16 18 19 18 16 13 12 12 13
25 23 22 20 21 19 18 20 18 17 15 14 14 14 13 16 16 14 15 15 14 16 17 18 17 16 15 17 17 17 17 17 17 17 15 12 12 12
24 23 23 24 24 21 18 18 15 14 11 13 14 14 15 14 14 13 12 12 13 13 14 15 15 15 16 16 16 16 16 14 12 12 11 11 12 12
24 23 20 22 20 15 16 15 14 12 13 13 12 13 15 12 10 10 11 11 14 14 14 14 15 15 15 16 16 14 11 10 9 9 10 12 13 14
20 19 18 16 14 15 13 13 12 13 12 11 11 10 10 10 11 11 12 12 12 13 13 15 15 15 14 13 11 9 8 8 9 11 12 14 15 15
17 16 14 13 12 11 12 11 10 9 8 8 8 9 9 10 11 11 12 12 13 14 14 14 13 11 9 7 7 8 8 10 12 13 15 16 16 14
11 11 11 11 10 10 9 9 6 5 6 6 7 9 10 11 12 12 13 12 12 13 11 9 8 7 7 8 8 9 11 13 15 16 16 16 17 20
10 10 10 9 8 7 7 5 6 6 7 8 9 10 11 11 12 12 12 12 11 11 7 4 5 6 8 9 11 14 14 14 14 14 15 19 22 21
11 10 10 8 7 5 4 5 6 7 8 9 9 10 11 11 11 10 10 10 8 6 4 4 6 6 8 11 12 11 7 4 9 13 19 21 22 23
11 10 8 6 4 5 6 7 8 9 9 9 10 10 10 11 9 9 8 6 5 6 8 7 7 9 10 10 8 3 6 9 13 14 18 22 23 23
10 8 6 4 5 5 6 7 7 8 8 8 8 8 9 10 8 7 6 5 5 7 6 8 10 11 6 8 7 10 16 16 13 19 20 21 23 23
7 6 5 4 4 5 6 6 6 7 7 7 8 8 8 8 7 7 6 7 8 9 11 13 13 13 12 16 17 16 16 12 20 18 19 17 16 16
6 5 5 4 4 5 5 6 5 5 6 7 7 7 7 7 7 8 9 10 10 11 11 13 16 16 17 21 23 22 23 23 20 16 8 16 21 20
6 5 4 4 4 5 5 5 5 5 6 6 6 7 8 9 10 11 11 11 11 11 12 13 14 16 18 22 26 27 27 24 19 15 24 20 21 20
5 5 4 4 4 5 6 6 6 6 6 6 7 8 10 11 11 12 12 13 14 11 12 14 15 18 20 22 26 28 26 27 24 23 23 25 22 20
6 5 5 5 5 5 6 6 7 7 7 7 8 9 12 13 13 14 15 15 16 16 14 13 16 19 21 23 27 29 28 24 22 23 23 24 24 23
7 7 7 7 7 6 6 7 7 8 8 8 9 10 12 14 15 16 17 17 18 18 18 19 20 22 24 24 25 21 24 24 20 23 25 28 26 21
9 8 8 9 8 7 7 7 8 9 9 9 10 11 13 14 16 17 18 19 20 20 19 20 21 21 23 26 27 28 24 24 29 27 24 24 28 25
11 10 10 10 10 9 9 8 9 10 10 11 11 12 13 15 17 18 19 20 20 21 21 20 20 20 22 25 28 28 30 29 28 29 27 24 26 26
13 13 13 12 12 11 11 11 11 11 11 13 13 14 15 17 18 19 20 19 20 22 25 22 21 22 25 27 31 32 30 31 27 27 28 26 28 29
17 16 15 15 14 14 14 13 13 12 13 14 14 16 16 18 19 20 20 22 22 23 25 23 21 22 24 27 31 32 31 30 28 24 23 22 23 26
18 19 18 18 17 17 16 16 16 15 14 15 17 17 18 19 19 20 21 22 23 24 24 25 23 23 25 27 29 32 31 30 29 28 25 21 20 23
Wind_Direction
256 259 261 265 269 272 273 277 275 273 276 279 266 278 285 279 271 270 275 272 272 273 269 259 262 271 272 269 275 275 274 277 283 284 283 287 288 286
253 253 258 263 278 279 278 278 273 272 272 268 279 265 269 267 271 271 279 269 267 277 279 278 276 277 280 280 275 277 280 282 282 281 281 283 280 271
246 249 253 266 280 274 272 271 273 265 266 272 268 263 271 275 274 274 269 267 269 271 271 273 271 273 275 275 281 282 282 285 289 286 284 285 283 284
252 252 258 264 271 269 271 264 262 266 270 274 278 276 274 273 268 267 262 267 267 268 270 276 272 273 278 282 282 286 289 292 288 283 279 279 279 283
250 254 254 261 265 260 256 259 259 265 264 269 270 269 264 265 269 268 268 274 275 275 276 274 274 279 279 281 284 287 290 288 287 286 288 289 289 287
247 246 251 256 245 253 249 250 248 249 250 251 246 252 259 264 265 266 272 275 276 277 279 277 280 282 283 281 280 283 284 290 292 290 285 283 286 287
241 241 237 234 234 228 232 238 241 237 241 246 252 254 259 261 263 271 274 278 282 284 283 285 285 286 282 278 283 288 290 285 282 284 288 288 286 284
225 223 213 216 220 223 224 226 228 236 243 249 256 258 262 266 270 275 279 284 289 282 283 281 287 282 280 282 285 287 290 292 293 294 297 298 301 300
216 206 202 193 196 200 212 217 236 248 258 267 269 269 270 271 277 279 283 285 283 281 289 268 274 278 287 287 296 298 293 287 288 291 291 295 299 299
185 177 176 175 182 197 225 250 264 273 274 275 277 278 275 277 281 282 283 285 281 281 282 285 282 286 284 297 299 299 294 293 296 290 294 295 297 298
168 170 169 180 204 233 256 268 278 282 286 287 282 281 281 283 285 279 278 273 274 275 288 290 291 303 304 296 289 207 319 301 298 296 298 296 295 294
172 176 192 208 239 269 273 280 284 288 290 288 284 281 277 281 277 271 259 254 271 292 276 294 299 313 313 290 243 244 304 298 282 302 295 291 290 290
185 196 215 237 272 282 282 290 292 289 286 284 283 280 274 269 263 255 255 268 276 272 280 293 297 301 292 284 280 279 292 294 300 297 294 291 283 284
200 216 237 268 279 288 299 299 298 292 290 283 277 271 264 260 256 260 269 273 276 281 284 289 293 298 297 298 300 306 312 315 313 308 281 299 289 289
212 229 254 273 289 299 301 310 316 307 292 284 276 268 262 260 264 270 274 280 283 288 290 289 289 290 291 294 300 305 312 316 311 307 308 299 297 293
224 236 252 283 296 297 305 314 309 302 295 288 281 272 268 267 270 275 280 285 289 291 287 286 286 288 292 295 296 301 309 304 305 305 301 298 298 295
234 248 263 279 287 295 302 306 305 301 296 290 284 282 282 277 276 279 283 285 288 291 287 282 284 288 291 294 295 304 307 303 307 302 298 296 296 299
239 254 261 269 281 292 299 303 302 299 297 294 291 287 287 285 282 283 283 284 286 289 290 292 293 297 297 293 296 300 299 305 310 306 301 299 296 297
249 255 262 272 279 288 296 304 303 302 302 298 292 290 290 291 290 287 287 287 288 288 289 291 295 301 302 301 305 306 305 313 315 310 306 300 298 300
251 256 265 271 277 284 293 300 302 303 304 298 296 291 289 289 290 291 292 292 292 292 291 291 296 302 298 299 298 300 300 307 308 307 308 299 296 299
255 259 265 272 278 283 287 290 294 297 299 298 298 293 290 288 290 291 294 295 296 296 297 300 302 299 298 295 292 302 304 306 308 307 310 305 306 305
253 260 265 270 276 281 283 285 288 292 295 298 296 294 291 288 291 292 294 297 297 297 298 301 300 295 291 292 296 299 302 304 307 306 299 300 300 291
253 258 262 267 272 277 280 282 285 289 293 294 294 294 291 291 292 292 293 294 296 297 298 301 300 298 298 297 299 301 305 307 309 309 305 309 299 298
Height
1538 1540 1540 1541 1542 1542 1542 1542 1541 1539 1541 1541 1542 1543 1543 1543 1543 1544 1544 1543 1544 1543 1543 1543 1543 1542 1541 1541 1541 1540 1540 1540 1540 1540 1540 1540 1540 1540
1533 1534 1534 1536 1536 1536 1537 1538 1536 1536 1535 1535 1536 1537 1538 1539 1539 1539 1539 1539 1538 1538 1538 1538 1537 1536 1536 1536 1535 1535 1535 1535 1534 1534 1534 1534 1534 1534
1527 1528 1529 1530 1530 1530 1531 1532 1531 1531 1530 1531 1532 1533 1533 1534 1533 1534 1534 1534 1533 1533 1533 1533 1532 1532 1532 1531 1531 1531 1531 1530 1530 1529 1528 1528 1529 1529
1522 1523 1524 1524 1524 1524 1526 1526 1526 1527 1527 1527 1528 1528 1529 1528 1529 1529 1529 1529 1529 1529 1529 1529 1528 1528 1528 1527 1526 1525 1525 1524 1524 1523 1523 1523 1522 1522
1516 1516 1518 1518 1519 1519 1522 1523 1522 1522 1524 1524 1524 1524 1525 1525 1526 1526 1525 1526 1526 1525 1525 1524 1524 1524 1523 1522 1521 1520 1520 1520 1520 1519 1519 1519 1518 1517
1510 1511 1514 1513 1514 1516 1518 1520 1518 1518 1518 1520 1521 1521 1522 1522 1522 1522 1522 1522 1522 1521 1520 1520 1519 1519 1518 1517 1517 1517 1517 1517 1516 1516 1516 1515 1514 1513
1506 1507 1508 1510 1512 1512 1513 1514 1515 1514 1516 1517 1518 1518 1518 1519 1519 1518 1518 1518 1518 1517 1516 1515 1514 1514 1514 1514 1514 1514 1514 1514 1513 1512 1511 1510 1509 1508
1503 1504 1505 1506 1508 1510 1511 1512 1512 1512 1514 1515 1515 1515 1515 1515 1515 1514 1514 1514 1514 1512 1512 1512 1511 1510 1510 1510 1510 1510 1510 1509 1508 1507 1506 1505 1504 1502
1502 1502 1503 1504 1506 1508 1509 1509 1510 1511 1511 1511 1511 1511 1511 1510 1510 1510 1510 1510 1509 1508 1508 1508 1508 1507 1507 1507 1506 1505 1504 1504 1503 1503 1502 1501 1499 1497
1499 1500 1502 1503 1505 1506 1507 1508 1508 1508 1508 1508 1507 1507 1507 1506 1507 1507 1507 1507 1506 1505 1505 1505 1505 1505 1504 1503 1502 1501 1500 1500 1501 1500 1498 1496 1493 1491
1498 1500 1501 1503 1504 1505 1506 1506 1505 1504 1504 1504 1504 1503 1503 1503 1503 1503 1504 1504 1504 1503 1503 1503 1502 1501 1500 1499 1498 1498 1498 1498 1497 1496 1493 1490 1487 1485
1498 1500 1501 1502 1503 1503 1504 1503 1502 1501 1500 1500 1500 1500 1500 1500 1500 1501 1501 1502 1502 1502 1500 1501 1499 1498 1497 1495 1495 1496 1495 1494 1493 1491 1488 1485 1482 1480
1497 1499 1500 1500 1500 1501 1501 1500 1499 1498 1497 1497 1497 1497 1497 1497 1498 1498 1499 1499 1499 1499 1498 1496 1495 1495 1494 1493 1492 1492 1491 1490 1488 1485 1481 1479 1476 1474
1497 1498 1498 1498 1498 1498 1498 1497 1496 1495 1495 1494 1494 1494 1494 1495 1495 1496 1496 1496 1496 1495 1494 1493 1491 1491 1490 1487 1485 1485 1484 1482 1480 1477 1475 1474 1471 1469
1495 1495 1496 1496 1496 1495 1495 1494 1493 1493 1492 1492 1491 1491 1492 1492 1493 1492 1492 1492 1492 1491 1490 1489 1488 1487 1486 1484 1481 1479 1477 1476 1473 1471 1469 1466 1464 1463
1493 1493 1493 1493 1493 1493 1492 1491 1491 1490 1490 1489 1489 1489 1489 1489 1489 1489 1488 1488 1488 1488 1486 1485 1484 1482 1481 1479 1477 1473 1473 1470 1468 1465 1461 1459 1457 1456
1490 1490 1490 1491 1491 1490 1489 1489 1488 1487 1487 1486 1486 1486 1486 1486 1485 1485 1484 1484 1484 1483 1483 1482 1479 1477 1475 1474 1470 1468 1466 1463 1461 1458 1455 1451 1451 1448
1487 1488 1488 1488 1488 1487 1487 1486 1485 1484 1483 1483 1482 1482 1482 1481 1481 1481 1480 1480 1479 1479 1478 1476 1474 1471 1468 1467 1465 1463 1461 1457 1455 1452 1449 1444 1441 1442
1484 1485 1485 1485 1484 1484 1483 1482 1481 1480 1480 1479 1479 1478 1478 1477 1476 1476 1475 1474 1473 1473 1472 1470 1469 1466 1462 1459 1459 1455 1452 1451 1447 1444 1442 1439 1434 1432
1480 1481 1481 1480 1480 1479 1478 1478 1477 1476 1476 1475 1474 1473 1473 1472 1471 1470 1469 1468 1467 1466 1465 1465 1464 1462 1458 1455 1449 1449 1446 1444 1441 1436 1433 1431 1427 1424
1475 1476 1476 1475 1475 1475 1474 1473 1473 1472 1471 1470 1469 1468 1467 1466 1465 1464 1463 1462 1461 1459 1458 1458 1458 1455 1450 1447 1441 1439 1438 1435 1433 1429 1426 1422 1418 1414
1469 1470 1470 1470 1470 1469 1469 1468 1467 1467 1466 1465 1464 1463 1461 1460 1459 1458 1457 1455 1454 1453 1450 1450 1449 1447 1444 1440 1435 1432 1429 1427 1425 1423 1421 1418 1415 1407
1463 1464 1464 1464 1464 1463 1463 1462 1461 1460 1460 1459 1458 1457 1455 1454 1453 1451 1450 1449 1447 1445 1444 1442 1441 1439 1436 1433 1429 1425 1422 1419 1416 1412 1411 1410 1407 1404